Regional Weather Roundup
Issued by NWS

Home | Current Version | Previous Version | Graphics & Text | Print | Product List | Glossary On
Versions: 1 2 3 4 5 6 7 8 9 10 11 12 13 14 15 16 17 18 19 20 21 22 23 24 25 26 27 28 29 30 31 32 33 34 35 36 37 38 39 40 41 42 43 44 45 46 47 48 49 50
000
ASUS43 KLOT 241809
RWRIL

ILLINOIS REGIONAL WEATHER ROUNDUP
NATIONAL WEATHER SERVICE CHICAGO/ROMEOVILLE IL
100 PM CDT SUN SEP 24 2017

NOTE: "FAIR" INDICATES FEW OR NO CLOUDS BELOW 12,000 FEET WITH NO
SIGNIFICANT WEATHER AND/OR OBSTRUCTIONS TO VISIBILITY.

* THESE STATIONS ARE NOT UNDER NWS QUALITY CONTROL. THEY ALSO MAY NOT
  REPORT WEATHER SUCH AS PRECIPITATION OR FOG.

ILZ001-002-007-009-015-016-024-241900-
NORTHWEST ILLINOIS

CITY           SKY/WX    TMP DP  RH WIND       PRES   REMARKS
MOLINE         SUNNY     89  63  41 S13       30.01F HX  90
6HR MIN TEMP:  66; 6HR MAX TEMP:  89;

STERLING*      SUNNY     88  65  46 VRB5      30.04F HX  90
SAVANNA*       SUNNY     88  64  43 SW9       30.03F HX  89
$$

ILZ003-004-008-010-011-017-018-241900-
NORTH CENTRAL ILLINOIS

CITY           SKY/WX    TMP DP  RH WIND       PRES   REMARKS
ROCKFORD       SUNNY     88  59  37 S12       30.07F HX  87
6HR MIN TEMP:  66; 6HR MAX TEMP:  88;

FREEPORT*      SUNNY     86  60  40 S8G18     30.07F HX  85
ROCHELLE*      SUNNY     87  61  41 S10       30.06F HX  87
DE KALB*       SUNNY     87  63  44 S9        30.08F HX  88
PERU*          SUNNY     86  61  42 S9        30.06F HX  86
$$

ILZ005-006-012>014-019>023-241900-
NORTHEAST ILLINOIS

CITY           SKY/WX    TMP DP  RH WIND       PRES   REMARKS
CHICAGO-OHARE  MOSUNNY   89  61  38 S9G21     30.06F HX  89
6HR MIN TEMP:  71; 6HR MAX TEMP:  90;

CHICAGO-MIDWAY MOSUNNY   91  60  35 S12G17    30.06F HX  90
6HR MIN TEMP:  73; 6HR MAX TEMP:  91;

AURORA         SUNNY     87  64  46 S9G18     30.07F HX  88
6HR MIN TEMP:  67; 6HR MAX TEMP:  88;

LANSING*       SUNNY     88  64  45 SE8       30.07F HX  89
JOLIET*        MOSUNNY   89  65  45 CALM      30.07F HX  90
WAUKEGAN       SUNNY     86  67  52 SE9       30.07F HX  89
6HR MIN TEMP:  65; 6HR MAX TEMP:  88;

DUPAGE AIRPORT SUNNY     88  64  44 SW8       30.07F HX  89
6HR MIN TEMP:  66; 6HR MAX TEMP:  88;

KANKAKEE*      SUNNY     87  63  44 SE5       30.07F HX  88
WHEELING       MOSUNNY   90  62  39 S6        30.07F HX  90
6HR MIN TEMP:  67; 6HR MAX TEMP:  91;

MORRIS*        SUNNY     89  62  40 SE9       30.05F HX  89
ROMEOVILLE*    SUNNY     88  63  42 S8        30.07F HX  89
NORTHERLY ISL    N/A     81  66  60 NE3         N/A  HX  83
$$

LMZ740>746-241900-
SOUTHERN LAKE MICHIGAN

STATION/POSITION SKY/WX   TEMP    WIND        PRES    VSBY  WAVE
                          AIR SEA DIR/SP/G                  HT/PER
                          (F)     (DEG/KT/KT) (MB)    (MI)  (FT/S)
SOUTHERN BUOY              72 71  180/  6/  8 1019.1          1
WILMETTE HARBOR            74 71  120/  6/  8   N/A           1/ 3
HARRISON CRIB              79     110/  9/  9   N/A
BURNHAM HARBOR             80                   N/A
CALUMET HARBOR             80      50/  7/  8 1017.8F
BURNS HARBOR               88     150/  6/ 11 1018.6F
MICHIGAN CITY              86     140/  8/ 10   N/A
MICHIGAN CITY 6N           78 74   40/  6/  6   N/A           0
ST. JOSEPH                 76 74  360/  4/  4 1018.5          0
$$

ILZ025>027-034>036-040-047-049-050-058-095>099-241900-
WEST-CENTRAL ILLINOIS

CITY           SKY/WX    TMP DP  RH WIND       PRES   REMARKS
QUINCY         MOSUNNY   88  63  43 S8G17     30.02F HX  89
GALESBURG*     MOSUNNY   87  64  45 S9G18     30.04F HX  88
MACOMB*        MOSUNNY   89  62  40 S6        30.05F HX  89
JACKSONVILLE*  MOSUNNY   87  63  44 S6        30.03F HX  88
PITTSFIELD*    MOSUNNY   90  66  45 SE8       30.04F HX  92
$$

ILZ028>032-037-038-041>044-048-051>054-059>061-241900-
CENTRAL ILLINOIS

CITY           SKY/WX    TMP DP  RH WIND       PRES   REMARKS
PONTIAC        SUNNY     90  61  38 S12       30.06F HX  90
BLOOMINGTON    SUNNY     87  63  44 CALM      30.07F HX  88
DECATUR        SUNNY     88  61  40 VRB3      30.05F HX  88
PEORIA         SUNNY     90  64  42 VRB6      30.04F HX  91
6HR MIN TEMP:  65; 6HR MAX TEMP:  90;

LACON*         MOSUNNY   89  64  44 SW5       30.03F HX  90
LINCOLN*       MOSUNNY   90  66  45 S5        30.04F HX  92
SPRINGFIELD    MOSUNNY   91  66  43 S5        30.04F HX  93
6HR MIN TEMP:  66; 6HR MAX TEMP:  92;

TAYLORVILLE    SUNNY     88  63  42 CALM      30.04F HX  89
6HR MIN TEMP:  65; 6HR MAX TEMP:  89;

$$

ILZ033-039-045-046-055>057-062-063-241900-
EAST-CENTRAL ILLINOIS

CITY           SKY/WX    TMP DP  RH WIND       PRES   REMARKS
RANTOUL*       SUNNY     90  63  41 S8        30.07F HX  90
MATTOON        SUNNY     89  61  38 SE6       30.05F HX  89
PARIS*         SUNNY     90  62  39 E9        30.06F HX  90
$$

ILZ079-100>102-241900-
SOUTHWEST ILLINOIS

CITY           SKY/WX    TMP DP  RH WIND       PRES   REMARKS
ALTON          MOSUNNY   88  68  51 E7        30.03F HX  91
BELLEVILLE     SUNNY     90  66  45 CALM      30.01F HX  92
CAHOKIA*       PTSUNNY   90  64  42 E7        30.01F HX  91
SPARTA*        PTSUNNY   90  66  44 S5        30.04S HX  92
$$

ILZ064>066-069>071-074>076-080>082-084>086-088>090-092>094-241900-
SOUTH-CENTRAL ILLINOIS

CITY           SKY/WX    TMP DP  RH WIND       PRES   REMARKS
CARBONDALE     SUNNY     88  68  51 S3        30.02F HX  91
6HR MIN TEMP:  64; 6HR MAX TEMP:  88;

CAIRO*         SUNNY     87  72  60 SW3       30.01F HX  94
EFFINGHAM*     SUNNY     91  61  36 CALM      30.05F HX  91
MARION         PTSUNNY   91  64  40 SE8       30.03F HX  93
MT. VERNON       N/A     90  65  43 S6        30.03F HX  92
CENTRALIA*     MOSUNNY   90  65  44 NW5       30.02F HX  91
SALEM*         MOSUNNY   91  62  37 S3        30.03F HX  91
METROPOLIS*    SUNNY     90  67  47 E3        30.02F HX  93
$$

ILZ067-068-072-073-078-083-087-091-241900-
SOUTHEAST ILLINOIS

CITY           SKY/WX    TMP DP  RH WIND       PRES   REMARKS
LAWRENCEVILLE  SUNNY     90  63  40 E6        30.04F HX  91
FLORA*         SUNNY     91  62  37 CALM      30.04F HX  91
FAIRFIELD*     SUNNY     91  58  33 SE3       30.02F HX  90
HARRISBURG*    MOSUNNY   91  63  39 NE7       30.03F HX  92
ROBINSON*      SUNNY     89  64  43 E7        30.06S HX  90
CARMI*         SUNNY     91  61  36 CALM      30.02F HX  91
$$

ABBREVIATIONS USED IN REMARKS
   TC - TEMPERATURE IN CELSIUS
  WCI - WIND CHILL INDEX
   HX - HEAT INDEX
  VSB - VISIBILITY
$$




USA.gov is the U.S. government's official web portal to all federal, state and local government web resources and services.